Tracking 33744 objects as of 12-Apr-2026
HD Live streaming from Space Station
objects crossing your sky now

ONEWEB-0169

Track ONEWEB-0169 now!
10-day predictions
ONEWEB-0169 is classified as:


NORAD ID: 48077
Int'l Code: 2021-025AM
Perigee: 1,215.7 km
Apogee: 1,218.2 km
Inclination: 87.9 °
Period: 109.6 minutes
Semi major axis: 7587 km
RCS: Unknown
Launch date: March 25, 2021
Source: United States (US)
Launch site: VOSTOCHNY COSMODROME (VOSTO)
Your satellite tracking list
Your tracking list is empty




NASA's NSSDC Master Catalog

Two Line Element Set (TLE):
1 48077U 21025AM  26101.90966654 -.00000177  00000-0 -52054-3 0  9997
2 48077  87.8991 333.4208 0001645  88.3361 271.7957 13.13468905243601
Source of the keplerian elements: AFSPC